Location: Larrial
(48.2758°N, 4.5331°W)
Time: 15:56:24
(UTC+00:00)

AAUSAT CUBESAT 2 - Pass Details

Date: 02 December 2021
Orbit: 572 x 586 km, 97.5° (Epoch: 16 January)

Event Time Altitude Azimuth Distance (km) Brightness Sun altitude
Rises 17:46:13 0° 211° (SSW) 2,771 ? -12.9°
Reaches altitude 10° 17:49:11 10° 235° (SW) 1,878 ? -13.3°
Maximum altitude 17:51:33 15° 270° (W) 1,583 ? -13.7°
Drops below altitude 10° 17:53:55 10° 306° (NW) 1,886 ? -14.1°
Sets 17:56:55 0° 330° (NNW) 2,790 ? -14.6°
